• In Germany
  • List of Countries
  • For 7 days
  • Water Temperature
  • Satellite Maps
  • Weather Map
  • Weather Widgets
  • user-avatar
    Login

    Hourly Weather Bihać

    Today, 18 January, Thursday

    Time Temperature Precipitation Wind Pressure Humidity
    00:00 -2°C° 0 mm 4 mps 706 mmHg 66%
    01:00 -2°C° 0 mm 4 mps 706 mmHg 63%
    02:00 -1°C° 0 mm 4 mps 706 mmHg 61%
    03:00 -1°C° 0 mm 4 mps 707 mmHg 60%
    04:00 -1°C° 0 mm 4 mps 707 mmHg 59%
    05:00 0°C° 0 mm 3 mps 707 mmHg 59%
    06:00 0°C° 0 mm 3 mps 708 mmHg 59%
    07:00 -1°C° 0 mm 2 mps 708 mmHg 56%
    08:00 +2°C° 0 mm 2 mps 708 mmHg 52%
    09:00 +3°C° 0 mm 2 mps 709 mmHg 48%
    10:00 +4°C° 0 mm 2 mps 709 mmHg 45%
    11:00 +4°C° 0 mm 3 mps 709 mmHg 44%
    12:00 +5°C° 0 mm 3 mps 709 mmHg 44%
    13:00 +5°C° 0 mm 3 mps 708 mmHg 44%
    14:00 +5°C° 0 mm 4 mps 708 mmHg 49%
    15:00 +4°C° 0 mm 4 mps 707 mmHg 53%
    16:00 +4°C° 0 mm 4 mps 707 mmHg 58%
    17:00 +3°C° 0 mm 4 mps 707 mmHg 60%
    18:00 +3°C° 0 mm 4 mps 707 mmHg 62%
    19:00 +1°C° 0 mm 4 mps 707 mmHg 64%
    20:00 +1°C° 0 mm 5 mps 707 mmHg 65%
    21:00 +1°C° 0 mm 5 mps 707 mmHg 66%
    22:00 +1°C° 0 mm 5 mps 706 mmHg 67%
    23:00 +1°C° 0 mm 5 mps 706 mmHg 66%

    Tomorrow, 19 January, Friday

    Time Temperature Precipitation Wind Pressure Humidity
    00:00 +1°C° 0 mm 6 mps 706 mmHg 66%
    01:00 +2°C° 0 mm 6 mps 706 mmHg 65%
    02:00 +2°C° 0 mm 6 mps 705 mmHg 69%
    03:00 +2°C° 0 mm 6 mps 705 mmHg 72%
    04:00 +2°C° 0 mm 6 mps 705 mmHg 76%
    05:00 +2°C° 0 mm 6 mps 705 mmHg 78%
    06:00 +2°C° 0 mm 6 mps 705 mmHg 81%
    07:00 +3°C° 0 mm 6 mps 705 mmHg 83%
    08:00 +3°C° 0 mm 7 mps 705 mmHg 82%
    09:00 +4°C° 0 mm 7 mps 705 mmHg 82%
    10:00 +4°C° 0 mm 7 mps 705 mmHg 81%
    11:00 +5°C° 0.1 mm 7 mps 705 mmHg 82%
    12:00 +5°C° 0.1 mm 7 mps 704 mmHg 82%
    13:00 +5°C° 0.1 mm 7 mps 704 mmHg 83%
    14:00 +5°C° 0.2 mm 6 mps 704 mmHg 85%
    15:00 +6°C° 0.2 mm 5 mps 704 mmHg 87%
    16:00 +5°C° 0.2 mm 5 mps 704 mmHg 89%
    17:00 +5°C° 0.7 mm 4 mps 704 mmHg 91%
    18:00 +5°C° 0.7 mm 4 mps 704 mmHg 93%
    19:00 +4°C° 0.7 mm 3 mps 705 mmHg 94%
    20:00 +3°C° 2.2 mm 4 mps 705 mmHg 93%
    21:00 +3°C° 2.2 mm 4 mps 705 mmHg 92%
    22:00 +1°C° 2.2 mm 5 mps 705 mmHg 91%
    23:00 0°C° 1.5 mm 5 mps 705 mmHg 90%

    Day after tomorrow, 20 January, Saturday

    Time Temperature Precipitation Wind Pressure Humidity
    00:00 -1°C° 1.5 mm 5 mps 706 mmHg 89%
    01:00 -2°C° 1.5 mm 6 mps 706 mmHg 88%
    02:00 -2°C° 0.1 mm 5 mps 706 mmHg 87%
    03:00 -2°C° 0.1 mm 4 mps 706 mmHg 86%
    04:00 -2°C° 0.1 mm 4 mps 706 mmHg 86%
    05:00 -2°C° 0 mm 3 mps 707 mmHg 85%
    06:00 -2°C° 0 mm 3 mps 707 mmHg 85%
    07:00 -3°C° 0 mm 2 mps 707 mmHg 85%
    08:00 -1°C° 0 mm 2 mps 707 mmHg 81%
    09:00 +1°C° 0 mm 2 mps 708 mmHg 77%
    10:00 +3°C° 0 mm 1 mps 708 mmHg 73%
    11:00 +4°C° 0 mm 1 mps 708 mmHg 70%
    12:00 +5°C° 0 mm 1 mps 707 mmHg 66%
    13:00 +7°C° 0 mm 1 mps 707 mmHg 62%
    14:00 +6°C° 0 mm 1 mps 706 mmHg 66%
    15:00 +5°C° 0 mm 1 mps 706 mmHg 70%
    16:00 +5°C° 0 mm 1 mps 706 mmHg 75%
    17:00 +4°C° 0 mm 1 mps 705 mmHg 76%
    18:00 +2°C° 0 mm 2 mps 705 mmHg 77%
    19:00 +1°C° 0 mm 2 mps 704 mmHg 78%
    20:00 0°C° 0 mm 3 mps 704 mmHg 78%
    21:00 0°C° 0 mm 3 mps 703 mmHg 77%
    22:00 0°C° 0 mm 4 mps 703 mmHg 77%
    23:00 0°C° 0.8 mm 4 mps 702 mmHg 80%

    21 January, Sunday

    Time Temperature Precipitation Wind Pressure Humidity
    00:00 0°C° 0.8 mm 4 mps 702 mmHg 83%
    01:00 +1°C° 0.8 mm 5 mps 701 mmHg 86%
    02:00 +1°C° 2.3 mm 4 mps 700 mmHg 90%
    03:00 +2°C° 2.3 mm 3 mps 700 mmHg 93%
    04:00 +3°C° 2.3 mm 2 mps 700 mmHg 96%
    05:00 +1°C° 0.4 mm 4 mps 700 mmHg 93%
    06:00 +1°C° 0.4 mm 5 mps 701 mmHg 89%
    07:00 -1°C° 0.4 mm 7 mps 702 mmHg 85%
    08:00 -1°C° 0.1 mm 8 mps 703 mmHg 82%
    09:00 -3°C° 0.1 mm 9 mps 704 mmHg 78%
    10:00 -3°C° 0.1 mm 10 mps 705 mmHg 75%
    11:00 -3°C° 0 mm 10 mps 705 mmHg 72%
    12:00 -3°C° 0 mm 10 mps 706 mmHg 68%
    13:00 -3°C° 0 mm 10 mps 706 mmHg 65%
    14:00 -3°C° 0 mm 9 mps 707 mmHg 66%
    15:00 -2°C° 0 mm 8 mps 707 mmHg 66%
    16:00 -4°C° 0 mm 8 mps 708 mmHg 67%
    17:00 -3°C° 0 mm 7 mps 708 mmHg 70%
    18:00 -4°C° 0 mm 7 mps 709 mmHg 72%
    19:00 -5°C° 0 mm 6 mps 710 mmHg 75%
    20:00 -5°C° 0 mm 6 mps 710 mmHg 77%
    21:00 -5°C° 0 mm 5 mps 711 mmHg 78%
    22:00 -6°C° 0 mm 5 mps 711 mmHg 80%
    23:00 -5°C° 0 mm 4 mps 711 mmHg 81%

    22 January, Monday

    Time Temperature Precipitation Wind Pressure Humidity
    00:00 -5°C° 0 mm 4 mps 711 mmHg 83%
    01:00 -5°C° 0 mm 3 mps 711 mmHg 84%
    02:00 -5°C° 0 mm 3 mps 711 mmHg 84%
    03:00 -5°C° 0 mm 3 mps 711 mmHg 84%
    04:00 -4°C° 0 mm 2 mps 711 mmHg 85%
    05:00 -4°C° 0 mm 2 mps 711 mmHg 85%
    06:00 -4°C° 0 mm 2 mps 711 mmHg 85%
    07:00 -5°C° 0 mm 2 mps 711 mmHg 85%
    08:00 -4°C° 0 mm 2 mps 711 mmHg 80%
    09:00 -3°C° 0 mm 2 mps 712 mmHg 76%
    10:00 -1°C° 0 mm 2 mps 712 mmHg 71%
    11:00 +1°C° 0 mm 2 mps 712 mmHg 66%
    12:00 +2°C° 0 mm 2 mps 712 mmHg 62%
    13:00 +4°C° 0 mm 1 mps 712 mmHg 57%
    14:00 +2°C° 0 mm 2 mps 712 mmHg 61%
    15:00 +2°C° 0 mm 2 mps 713 mmHg 64%
    16:00 +1°C° 0 mm 2 mps 713 mmHg 68%
    17:00 -1°C° 0 mm 2 mps 713 mmHg 71%
    18:00 -2°C° 0 mm 2 mps 713 mmHg 74%
    19:00 -3°C° 0 mm 2 mps 714 mmHg 77%
    20:00 -3°C° 0 mm 2 mps 714 mmHg 76%
    21:00 -3°C° 0 mm 2 mps 714 mmHg 75%
    22:00 -3°C° 0 mm 2 mps 714 mmHg 73%
    23:00 -3°C° 0 mm 2 mps 714 mmHg 72%

    23 January, Tuesday

    Time Temperature Precipitation Wind Pressure Humidity
    00:00 -3°C° 0 mm 2 mps 715 mmHg 70%
    01:00 -2°C° 0 mm 2 mps 715 mmHg 68%
    02:00 -2°C° 0 mm 2 mps 715 mmHg 68%
    03:00 0°C° 0 mm 1 mps 715 mmHg 67%
    04:00 +1°C° 0 mm 1 mps 715 mmHg 67%
    05:00 +1°C° 0 mm 1 mps 715 mmHg 69%
    06:00 +2°C° 0 mm 1 mps 715 mmHg 71%
    07:00 +3°C° 0 mm 1 mps 715 mmHg 73%
    08:00 +4°C° 0 mm 1 mps 716 mmHg 72%
    09:00 +5°C° 0 mm 1 mps 716 mmHg 71%
    10:00 +7°C° 0 mm 1 mps 716 mmHg 71%
    11:00 +8°C° 0 mm 1 mps 716 mmHg 69%
    12:00 +9°C° 0 mm 1 mps 716 mmHg 68%
    13:00 +9°C° 0 mm 2 mps 716 mmHg 67%
    14:00 +9°C° 0 mm 1 mps 717 mmHg 72%
    15:00 +8°C° 0 mm 1 mps 717 mmHg 77%
    16:00 +7°C° 0 mm 1 mps 717 mmHg 81%
    17:00 +6°C° 0 mm 1 mps 717 mmHg 82%
    18:00 +5°C° 0 mm 1 mps 717 mmHg 82%
    19:00 +4°C° 0 mm 1 mps 717 mmHg 83%
    20:00 +4°C° 0 mm 1 mps 717 mmHg 82%
    21:00 +4°C° 0 mm 1 mps 718 mmHg 82%
    22:00 +4°C° 0 mm 1 mps 718 mmHg 81%
    23:00 +4°C° 0 mm 1 mps 718 mmHg 81%
    Show more